Regional Weather Roundup
Issued by NWS Northern Indiana

Home | Current Version | Previous Version | Text Only | Print | Product List | Glossary On
Versions: 1 2 3 4 5 6 7 8 9 10 11 12 13 14 15 16 17 18 19 20 21 22 23 24 25 26 27 28 29 30 31 32 33 34 35 36 37 38 39 40 41 42 43 44 45 46 47 48 49 50
000
ASUS43 KIWX 301010
RWRIWX

KIWX WEATHER ROUNDUP
NATIONAL WEATHER SERVICE NORTHERN INDIANA
500 AM EST FRI JAN 30 2015

NOTE: "FAIR" INDICATES FEW OR NO CLOUDS BELOW 12,000 FEET WITH NO
SIGNIFICANT WEATHER AND/OR OBSTRUCTIONS TO VISIBILITY.

* THESE STATIONS ARE NOT UNDER NWS QUALITY CONTROL. THEY ALSO MAY NOT
  REPORT WEATHER SUCH AS PRECIPITATION OR FOG.

INZ001>027-301100-
NORTHERN INDIANA

CITY           SKY/WX    TMP DP  RH WIND       PRES   REMARKS
VALPARAISO     MOCLDY    26  11  52 N9G21     30.37R WCI  17
MICHIGAN CITY* CLOUDY    28  10  47 N12G25    30.37R WCI  18
LAPORTE*       CLOUDY    28  18  67 N12G21    30.36R WCI  18
KNOX*          MOCLDY    27   7  43 N15G25    30.36R WCI  15
SOUTH BEND     CLOUDY    25  16  68 N17       30.35R WCI  12
GOSHEN         CLOUDY    22  15  75 N13       30.32R WCI  10
MONTICELLO*    CLOUDY    28  21  77 N16       30.35R WCI  15
LOGANSPORT*    CLOUDY    28  18  64 N17       30.34R WCI  16
ROCHESTER*     CLOUDY    28  19  69 N12G18    30.34R WCI  18
WARSAW*        FLURRIES  25  19  80 N13G23    30.32R WCI  13
ANGOLA*        CLEAR     19  10  68 NW13      30.26R WCI   7
FORT WAYNE     MOCLDY    24  14  65 N12       30.30R WCI  13
HUNTINGTON*    CLOUDY    24  11  57 N7        30.31R WCI  16
PERU/GRISSOM   CLOUDY    27  18  67 N17       30.32R WCI  14
MARION*        CLOUDY    27  17  68 N15       30.32R WCI  15

$$
INZ028>050-301100-
CENTRAL INDIANA

CITY           SKY/WX    TMP DP  RH WIND       PRES   REMARKS
LAFAYETTE      CLOUDY    28  19  69 N14G26    30.37R WCI  17
KOKOMO*        CLOUDY    27  18  69 N21G26    30.32R WCI  13
MUNCIE*        CLOUDY    28  19  69 N21G28    30.29R WCI  15
INDIANAPOLIS   FLURRIES  28  24  85 NW15      30.32R WCI  16

$$
MIZ043>046-050>051-056>058-064>065-071>073-077>080-301100-
SOUTHWEST LOWER MICHIGAN

CITY           SKY/WX    TMP DP  RH WIND       PRES   REMARKS
BATTLE CREEK   FLURRIES  22  12  65 NW15G22   30.30R WCI   9
BENTON HARBOR  LGT SNOW  24  18  77 NW13G21   30.36R WCI  12
COLDWATER*     CLOUDY    20  10  64 NW16G22   30.28R WCI   6
HILLSDALE*     FLURRIES  21  13  72 NW20G25   30.23R WCI   5
HOLLAND        CLOUDY    23  10  57 N8G20     30.36R WCI  14
GRAND RAPIDS   CLOUDY    20  12  71 NW15      30.32R WCI   6
KALAMAZOO      CLOUDY    21   9  59 NW20      30.31R WCI   6
STURGIS*       PTCLDY    19  10  68 CALM      30.30R
THREE RIVERS*  FAIR      21  10  63 N14G21    30.32R WCI   8

$$
OHZ001>008-015>018-024>025-301100-
NORTHWEST OHIO

CITY           SKY/WX    TMP DP  RH WIND       PRES   REMARKS
WAUSEON*       CLOUDY    23  12  63 NW17G25   30.25R WCI   9
DEFIANCE       CLOUDY    24  14  65 NW20G25   30.28R WCI  10
FINDLAY        CLOUDY    23  13  65 NW16G24   30.23R WCI  10
TOLEDO EXPRESS CLOUDY    22  12  65 NW17G23   30.24R WCI   8
TOLEDO METCALF CLOUDY    24  13  62 NW17      30.24R WCI  11
LIMA           CLEAR     24  13  62 NW18G30   30.24R WCI  10

$$
AND FOR LAKE MICHIGAN COASTAL AND OPEN LAKE BUOY OBSERVATIONS

STATION/POSITION TEMP    WIND        PRES    VSBY  WAVE
                 AIR SEA DIR/SP/G                  HT/PER
                 (F)     (DEG/KT/KT) (MB)    (MI)  (FT/S)
CALUMET HARBOR    26     320/ 11/ 20   N/A
MICHIGAN CITY     27     330/ 24/ 28   N/A
SAINT JOSEPH      26     340/ 20/ 29 1028.1S

$$
&&


USA.gov is the U.S. government's official web portal to all federal, state and local government web resources and services.